Regional Weather Roundup
Issued by NWS

Home | Current Version | Previous Version | Text Only | Print | Product List | Glossary Off
Versions: 1 2 3 4 5 6 7 8 9 10 11 12 13 14 15 16 17 18 19 20 21 22 23 24 25 26 27 28 29 30 31 32 33 34 35 36 37 38 39 40 41 42 43 44 45 46 47 48 49 50

000
ASUS43 KMPX 210910
RWRMN
WEATHER ROUNDUP FOR MINNESOTA
NATIONAL WEATHER SERVICE TWIN CITIES/CHANHASSEN MN
400 AM CDT TUE OCT 21 2014


NOTE: "FAIR" INDICATES FEW OR NO CLOUDS BELOW 12,000 FEET WITH NO
SIGNIFICANT WEATHER AND/OR OBSTRUCTIONS TO VISIBILITY. N/A MEANS
CURRENT SKY AND/OR WEATHER CONDITIONS ARE NOT AVAILABLE.

MNZ060>063-068>070-211000-
   Twin Cities Metro

CITY           SKY/WX    TMP DP  RH WIND       PRES   REMARKS
TWIN CITIES    CLEAR     40  37  89 N3        30.14S
ST PAUL        CLEAR     40  38  93 NW5       30.16R
CRYSTAL        CLEAR     36  33  89 CALM      30.14R FOG
BLAINE         CLEAR     36  36 100 CALM      30.15R
LAKEVILLE      CLEAR     34  34 100 CALM      30.14R FOG
EDEN PRAIRIE   CLEAR     40  39  97 N3        30.13S
SOUTH ST PAUL  CLEAR     40  37  87 CALM      30.15R
LAKE ELMO      FAIR      32  32 100 CALM      30.16R
$$
MNZ001>005-007-008-013>017-022>024-027-028-211000-
   Northwest Minnesota

CITY           SKY/WX    TMP DP  RH WIND       PRES   REMARKS
BEMIDJI        CLEAR     34  33  97 SE5       30.12S WCI  30
HALLOCK        CLEAR     39  37  93 MISG      30.05S
ROSEAU         CLEAR     37  34  87 SE8       30.10F
WARROAD        CLEAR     36  30  80 SE7       30.12S
THIEF RVR FALL CLEAR     37  34  87 SE8       30.08F
CROOKSTON      CLEAR     39  37  93 SE9       30.07F
FOSSTON        CLEAR     37  34  87 SE9       30.09S
DETROIT LAKES  CLEAR     41  37  87 SE8       30.10F
MOORHEAD       CLEAR     43  43 100 SE8       30.07S
PARK RAPIDS    CLEAR     34  33  96 SE5       30.12S WCI  30
MAHNOMEN       FAIR      40  37  90 S8        30.09R
$$
MNZ006-009>011-018-025>026-211000-
   North Central Minnesota

CITY           SKY/WX    TMP DP  RH WIND       PRES   REMARKS
BAUDETTE       CLEAR     35  32  88 SE6       30.13F WCI  30
FLAG ISLAND    CLEAR     43  37  81 SE16      30.11S
INTL FALLS     CLOUDY    40  34  79 SE7       30.16S
WASKISH        CLEAR     30  30 100 CALM      30.13F
BIG FORK       CLOUDY    43  36  75 E5        30.16R
LONGVILLE      CLEAR     28  28 100 CALM      30.14R
GRAND RAPIDS   CLEAR     32  28  86 CALM      30.15S
CRANE LAKE     CLOUDY    39  34  81 CALM      30.19S
ORR            CLOUDY    39  32  75 S5        30.15R
COOK           CLOUDY    39  34  81 CALM      30.17S
WALKER         FAIR      37  35  92 SE3       30.13S
$$
MNZ012-019>021-037-211000-
   Northeast Minnesota

CITY           SKY/WX    TMP DP  RH WIND       PRES   REMARKS
DULUTH         CLOUDY    43  36  76 E10       30.16R
ELY            CLOUDY    39  34  81 E6        30.17S
HIBBING        CLOUDY    38  33  82 CALM      30.16R
EVELETH        MOCLDY    39  34  81 CALM      30.17R
DULUTH HARBOR  CLOUDY    46  41  81 E12       30.18S
TWO HARBORS    CLOUDY    45  28  53 E8        30.16S
SILVER BAY     PTCLDY    43  36  75 NE6       30.17S
GRAND MARAIS     N/A     41  32  70 CALM      30.21S
G MARAIS ARPRT CLOUDY    34  27  75 N3        30.18S
$$
MNZ029>031-032-039>041-046>048-054>057-064-211000-
   West Central Minnesota

CITY           SKY/WX    TMP DP  RH WIND       PRES   REMARKS
FERGUS FALLS   CLEAR     43  36  75 SE9       30.10S
WHEATON        CLEAR     34  32  93 SE9       30.09S WCI  26
MORRIS         CLEAR     41  37  87 SE9       30.08S
ALEXANDRIA     CLEAR     40  37  89 E10       30.12S
ELBOW LAKE     FAIR      42  38  85 SE10      30.09S
WADENA         CLEAR     36  34  93 E5        30.12S
GLENWOOD       CLEAR     36  34  93 E8        30.11F
APPLETON       CLEAR     39  37  93 E7        30.09S
BENSON         CLEAR     39  37  93 SE7       30.10S
ORTONVILLE     CLEAR     41  36  81 SE9       30.08S
MADISON        CLEAR     37  36  93 SE6       30.09S
WILLMAR        FAIR      43  37  81 E8        30.12F
$$
MNZ033>034-036-042>043-049>051-058-059-211000-
   Central Minnesota

CITY           SKY/WX    TMP DP  RH WIND       PRES   REMARKS
ST CLOUD       CLEAR     41  36  82 E3        30.14R
SAUK CENTRE    FAIR      36  35  96 E5        30.13R
PAYNESVILLE    CLEAR     34  34 100 CALM      30.14R
AITKIN         HAZE      30  25  80 CALM      30.14S VSB 1/4
PINE RIVER     PTCLDY    28  28 100 CALM      30.17S
BRAINERD       CLEAR     30  30 100 CALM      30.15R FOG
STAPLES        CLEAR     30  30 100 CALM      30.13R
LONG PRAIRIE   FAIR      36  34  93 E6        30.13S
LITTLE FALLS   CLEAR     37  34  87 E3        30.14S
LITCHFIELD     CLEAR     41  39  93 E7        30.14S
BUFFALO        CLEAR     34  32  91 CALM      30.16R
MAPLE LAKE     CLEAR     35  34  99 CALM      30.15S
$$
MNZ037-044-045-052-053-211000-
   East Central Minnesota

CITY           SKY/WX    TMP DP  RH WIND       PRES   REMARKS
PRINCETON      FOG       34  32  93 CALM      30.15S VSB 1
MORA           CLEAR     32  30  93 CALM      30.17S
CAMBRIDGE      CLEAR     34  27  75 CALM      30.13S
RUSH CITY      CLEAR     33  32  96 CALM      30.15S
MOOSE LAKE     CLEAR     37  36  93 CALM      30.14R
HINCKLEY       FAIR      32  32 100 CALM      30.15S
CLOQUET        CLOUDY    43  37  81 E8        30.16R
MCGREGOR       CLOUDY    32  30  93 CALM      30.16S
$$
MNZ071>073-080-081-089-090-097-098-211000-
   Southwest Minnesota

CITY           SKY/WX    TMP DP  RH WIND       PRES   REMARKS
MONTEVIDEO     CLEAR     37  36  93 SE9       30.11S
GRANITE FALLS  CLEAR     40  36  86 E6        30.11S
CANBY          CLEAR     35  33  94 SE3       30.09S
MARSHALL       CLEAR     34  28  80 S3        30.08S
REDWOOD FALLS  CLEAR     42  37  82 E6        30.11R
OLIVIA         CLEAR     41  36  81 E6        30.11S
PIPESTONE      CLEAR     43  36  75 SE6       30.08S
WINDOM         CLEAR     37  36  93 E3        30.10S
WORTHINGTON    PTCLDY    36  28  75 CALM      30.10S
JACKSON        CLEAR     37  34  87 E5        30.10S
TRACY          CLEAR     43  37  78 S6        30.09S
SLAYTON        CLEAR     38  32  81 CALM      30.10S
$$
MNZ065>067-074>077-082>085-091>093-211000-
   South Central Minnesota

CITY           SKY/WX    TMP DP  RH WIND       PRES   REMARKS
MANKATO        CLEAR     45  36  70 E7        30.12S
NEW ULM        CLEAR     43  39  87 E5        30.12S
ST JAMES       CLEAR     37  36  93 E3        30.12S
FAIRMONT       CLEAR     37  21  52 CALM      30.11R
GLENCOE        CLEAR     36  35  96 CALM      30.13R
FARIBAULT      CLEAR     30  30 100 CALM      30.13S FOG
OWATONNA       CLEAR     32  30  93 CALM      30.13R
WASECA         CLEAR     36  32  87 CALM      30.13S
ALBERT LEA     CLEAR     37  36  93 CALM      30.12R
$$
MNZ078>079-086>088-094>096-211000-
   Southeast Minnesota

CITY           SKY/WX    TMP DP  RH WIND       PRES   REMARKS
ROCHESTER      CLEAR     40  37  89 N5        30.13R
RED WING       CLEAR     34  34 100 N3        30.14R
STANTON        CLEAR     33  31  94 CALM      30.13R
DODGE CENTER   CLEAR     39  37  93 NE3       30.12S
WINONA         CLEAR     37  36  93 CALM      30.14R
AUSTIN         CLEAR     36  36 100 CALM      30.12R
PRESTON        CLEAR     40  36  86 CALM      30.13R
$$
ABBREVIATIONS USED IN REMARKS
   TC - TEMPERATURES IN CELSIUS
  WCI - WIND CHILL INDEX
   HX - HEAT INDEX
  VSB - VISIBILITY
$$


USA.gov is the U.S. government's official web portal to all federal, state and local government web resources and services.